Theta_e
327 328 331 334 335 335 336 335 334 334 333 333 332 332 332 332 332 332 331 329 327 327 328 329 329 329 329 329 329 329 329 330 330 330 329 328 327 327 327 326 325 326 327 326 326 326 325 325 324 323 323 322 321 322 323 323 321 320 320 320 319 318 317 317 317 318 318 317 317 316 315 315 315 315
327 329 332 334 335 335 335 334 334 334 334 334 334 333 334 333 332 331 329 327 326 327 328 327 327 327 328 328 329 329 328 328 328 327 326 326 326 326 326 325 325 326 327 327 327 327 326 326 326 326 325 324 323 322 322 322 322 322 323 322 321 319 319 318 318 318 317 317 317 316 316 315 315 315
328 330 331 332 332 333 334 334 333 332 333 334 334 334 334 332 331 329 327 327 327 326 326 326 325 325 326 326 327 326 325 324 324 324 324 325 326 326 325 325 326 327 328 328 327 327 327 327 327 327 327 327 326 325 324 324 323 323 323 323 322 321 321 320 319 318 317 317 317 316 316 316 316 316
329 331 331 331 331 332 333 333 333 332 332 332 332 332 331 331 330 328 328 327 326 326 326 325 325 325 325 325 325 324 324 324 323 323 323 324 324 325 325 327 327 327 327 327 327 327 327 327 327 328 328 327 326 326 325 325 324 324 324 324 323 323 322 322 321 320 319 319 318 317 316 315 316 317
327 330 332 332 333 333 333 333 334 333 331 330 330 331 331 331 330 330 329 328 326 327 327 327 327 327 327 326 325 325 326 325 324 324 324 324 323 323 323 325 326 326 327 327 327 326 325 325 326 327 327 326 325 324 325 325 325 324 324 324 323 323 322 321 321 320 320 320 319 320 319 317 316 317
324 327 330 332 333 333 333 333 333 332 331 329 329 331 332 332 331 330 329 329 328 328 327 327 328 328 328 328 327 326 326 325 325 326 326 326 325 324 323 323 323 324 326 327 326 323 322 323 325 326 326 326 324 323 324 323 323 323 322 323 322 322 321 321 320 320 320 320 320 321 322 320 318 318
324 324 326 329 332 332 332 331 331 331 332 331 329 330 331 331 331 330 330 330 330 328 326 327 328 329 329 328 328 327 326 326 325 325 326 327 327 326 325 324 322 322 322 323 323 322 322 323 325 326 325 325 323 322 323 323 322 322 322 322 322 322 323 323 322 321 321 322 322 322 323 323 321 320
325 324 324 326 329 331 332 331 331 331 331 331 330 330 331 331 331 331 331 331 330 329 328 328 328 328 328 327 327 327 326 325 325 325 327 327 328 328 327 325 324 323 322 322 322 323 323 323 325 325 325 323 322 322 322 322 322 322 323 322 321 321 322 323 323 324 324 323 322 322 323 323 323 323
325 325 323 323 326 329 330 330 330 330 330 330 329 329 331 332 332 331 331 331 330 330 330 329 329 328 327 326 326 325 325 325 326 327 328 328 328 329 328 326 325 324 324 323 323 324 323 323 324 324 324 323 323 322 322 322 323 323 323 322 321 320 321 321 322 323 324 323 322 322 322 322 322 322
325 324 323 324 326 328 327 326 327 328 328 328 328 329 332 333 332 332 331 331 331 331 330 330 329 328 328 327 325 325 326 327 328 328 328 328 329 329 328 327 326 325 325 325 324 324 325 325 324 324 325 325 324 322 321 322 322 322 321 320 318 317 317 319 322 323 323 323 321 320 321 321 321 320
325 324 323 323 325 326 326 325 325 327 327 327 328 330 332 333 333 332 331 331 331 330 330 329 329 329 328 327 325 325 327 329 329 329 329 329 329 328 328 328 327 326 326 326 326 326 326 326 326 326 326 325 324 322 320 320 321 321 319 317 316 314 314 316 318 319 320 319 318 318 320 322 321 320
325 324 323 323 323 324 326 326 325 327 328 329 330 332 334 334 333 332 331 331 330 329 329 330 329 329 327 326 326 327 329 329 329 329 330 330 329 329 329 328 328 327 326 326 326 327 327 327 326 326 325 323 322 320 319 319 318 318 316 315 314 314 315 315 316 317 317 317 318 320 322 323 322 322
325 325 324 323 323 323 323 323 325 329 332 332 332 333 333 333 333 333 331 330 329 329 330 329 329 328 328 327 328 329 329 328 328 328 329 329 328 329 329 328 327 327 326 326 326 326 327 326 325 324 323 321 320 318 317 317 316 316 315 316 317 317 318 319 319 319 320 320 321 322 322 323 323 323
324 325 325 324 324 323 322 322 324 329 333 334 334 334 334 334 334 333 331 330 330 330 330 329 329 329 330 329 329 329 328 327 327 327 326 325 325 325 326 326 325 326 325 325 325 325 325 324 323 321 320 319 318 317 317 316 316 316 317 318 319 319 319 319 320 320 321 322 322 322 322 322 322 322
323 324 325 325 325 324 324 324 324 328 333 335 335 335 335 334 333 333 332 331 331 330 330 330 330 331 330 330 329 328 327 326 326 325 324 324 324 324 326 326 325 324 324 324 324 323 322 322 321 319 318 318 318 317 317 317 317 317 318 319 319 318 318 319 319 320 320 320 320 320 321 321 320 320
324 323 325 325 325 326 326 327 328 330 334 336 336 334 334 333 333 333 333 332 331 330 330 330 330 330 330 329 327 326 326 326 325 324 325 325 326 326 326 325 324 323 323 323 324 322 321 320 319 318 318 318 318 318 318 317 318 319 320 319 318 318 318 317 317 318 318 319 318 318 318 318 317 316
325 323 324 325 325 326 328 330 329 330 333 335 335 334 333 333 334 334 333 331 329 329 329 329 329 328 328 327 326 325 325 325 325 325 326 326 326 326 325 325 324 323 322 322 321 320 319 319 319 319 319 318 319 319 318 318 318 319 319 318 318 317 316 316 316 317 316 315 314 313 314 314 315 315
327 324 323 324 325 327 330 331 331 330 331 332 333 333 333 332 332 332 331 329 328 328 329 328 327 326 326 325 324 322 323 325 325 326 326 325 325 325 325 324 323 322 320 319 318 318 319 319 320 320 319 319 320 320 320 319 319 319 319 318 319 318 318 317 316 314 312 312 314 315 316 317 317 318
328 325 323 324 325 328 331 333 332 331 329 328 329 331 331 331 330 331 331 330 330 330 329 328 326 325 324 323 322 322 323 324 325 325 325 325 324 323 322 321 320 319 319 319 320 320 320 320 320 320 320 320 321 320 320 319 319 319 319 318 317 316 314 313 312 311 313 316 317 318 317 317 317 317
329 326 323 323 326 330 333 334 333 331 329 328 329 330 330 330 330 331 331 331 330 329 327 326 325 323 321 321 322 323 325 325 325 325 323 322 321 320 319 319 319 319 319 320 321 321 321 320 320 320 320 320 320 320 319 319 318 316 314 312 312 312 311 312 313 315 317 317 317 316 316 316 316 316
329 326 323 324 327 330 333 333 332 331 330 330 330 330 330 331 331 330 330 330 329 328 326 324 322 320 320 322 324 326 326 325 323 321 319 319 319 319 319 319 319 319 319 319 320 320 320 319 319 319 318 318 318 317 315 313 310 308 309 312 315 317 317 317 317 317 317 316 316 316 316 315 316 316
329 327 324 324 327 330 331 331 332 332 332 331 331 331 332 331 329 328 328 328 327 325 322 320 319 318 320 323 325 325 323 321 319 318 318 318 319 319 319 319 319 319 319 318 318 318 317 317 317 316 314 313 312 310 308 307 306 309 313 317 318 318 318 317 317 317 316 316 316 316 315 315 315 316
329 326 325 327 330 331 331 332 333 333 332 332 332 333 332 329 328 327 327 325 322 320 319 318 317 317 319 320 321 320 318 317 316 317 318 318 318 319 319 318 318 317 318 317 315 314 314 315 313 311 309 309 308 308 310 313 313 314 317 318 318 318 318 317 317 317 317 317 316 316 315 315 315 315
328 327 329 331 332 332 332 333 333 333 332 333 332 331 329 328 327 326 323 321 319 318 318 318 317 317 317 317 317 316 315 315 315 317 317 318 318 318 318 317 316 315 316 316 313 311 310 310 308 308 309 312 312 313 315 316 316 316 317 317 317 317 317 317 317 317 317 318 317 316 315 315 315 315
329 329 331 331 330 330 332 332 331 330 330 330 329 327 327 326 324 321 319 319 318 318 317 316 316 316 315 315 314 313 311 311 311 312 313 315 316 316 315 315 314 313 313 313 310 308 307 308 309 311 313 315 316 316 316 316 315 316 316 316 316 316 316 317 318 318 318 318 317 316 316 315 315 315
330 330 329 329 329 330 330 330 328 328 327 327 327 326 325 323 320 319 319 319 318 317 316 315 315 314 314 314 313 311 310 310 310 309 309 309 309 309 310 311 310 311 310 308 307 307 308 310 312 314 315 316 316 316 316 315 315 315 315 315 316 316 317 317 318 318 318 317 316 316 315 315 315 315
331 330 329 329 330 330 329 329 328 328 327 327 327 325 322 320 319 319 319 318 317 317 316 315 314 314 314 314 313 312 313 313 312 312 310 306 304 306 308 308 309 309 307 306 307 309 310 310 313 314 314 315 315 315 315 315 315 315 315 315 316 317 318 318 318 317 316 316 316 315 315 315 315 315
332 330 330 330 330 329 329 329 328 327 327 327 326 323 320 319 320 319 318 317 317 316 315 314 314 314 314 314 313 313 314 313 313 313 310 306 305 306 307 307 307 307 307 307 309 310 310 310 311 312 312 313 313 314 315 315 315 316 316 316 316 317 318 317 317 316 316 316 316 315 315 315 315 314
332 331 330 329 328 329 330 329 328 327 327 327 325 321 319 320 320 319 318 317 317 316 315 315 315 315 315 314 314 314 314 314 313 311 307 304 304 305 306 306 306 307 307 308 309 309 309 309 309 309 310 311 312 313 314 315 315 316 316 316 317 317 317 317 316 316 316 315 315 315 314 314 314 313
330 329 328 327 327 329 329 328 327 327 326 325 322 320 320 320 319 318 317 317 317 316 315 315 315 315 315 315 315 314 314 314 312 308 305 304 304 305 306 306 306 307 307 308 308 308 308 307 307 308 309 310 311 313 315 316 316 316 316 316 317 317 317 316 316 316 315 315 314 314 313 313 313 313
327 326 325 325 327 329 329 328 327 326 324 322 320 320 321 320 319 318 318 317 317 316 316 316 316 316 316 315 315 315 314 313 309 306 305 304 304 305 306 307 306 307 307 308 308 307 307 307 308 309 310 312 313 315 315 316 316 316 316 317 316 316 316 316 316 315 314 314 313 313 313 313 313 313
326 325 326 327 329 330 329 328 327 325 322 320 321 322 321 320 319 319 319 318 317 316 316 316 316 316 316 316 315 315 313 310 307 306 306 305 305 306 306 307 307 307 307 307 307 306 307 308 310 311 312 314 315 316 315 315 316 316 316 316 316 316 316 315 315 314 313 313 312 313 313 313 313 312
324 325 327 328 329 329 328 328 327 324 321 321 323 323 322 320 320 321 320 319 318 317 317 317 317 316 315 314 314 312 310 307 306 306 306 306 306 306 306 306 306 307 307 307 306 306 307 309 310 311 313 314 315 315 315 315 315 315 315 316 316 316 315 314 314 313 312 312 312 312 312 312 312 311
325 326 327 328 328 328 328 328 326 323 322 323 324 323 322 321 321 322 321 320 319 319 318 318 316 315 313 313 311 310 308 307 305 304 305 306 306 306 306 306 306 306 306 306 307 307 307 308 310 311 313 314 314 314 314 314 314 315 315 316 316 315 314 314 313 312 312 312 312 311 311 311 311 311
325 326 327 328 328 328 328 327 325 323 323 324 324 324 322 321 321 320 319 319 319 319 319 317 316 314 313 312 311 309 309 307 304 303 305 306 306 306 306 306 306 306 306 307 307 307 307 307 309 310 311 312 312 312 313 314 314 314 315 316 315 314 313 313 312 312 312 312 311 310 310 310 310 310
326 326 326 327 327 327 327 325 323 323 324 324 324 324 323 321 320 319 318 318 318 318 318 316 314 313 313 312 311 311 309 306 303 303 305 306 306 306 305 305 305 306 306 307 307 307 307 307 308 308 308 308 309 310 312 314 313 313 315 315 314 313 312 312 312 311 311 311 310 309 309 309 309 309
325 326 326 326 326 326 325 324 324 324 324 324 323 323 322 321 320 319 318 317 317 316 316 314 313 312 312 311 311 310 308 305 304 305 306 306 306 305 304 304 305 306 306 306 307 307 307 307 307 307 306 306 306 307 310 313 313 313 315 315 314 312 311 311 311 310 310 310 310 309 308 307 308 308
324 324 325 326 326 325 325 324 324 324 323 322 322 321 320 319 318 318 317 316 315 315 314 313 312 312 311 310 308 306 305 305 305 306 306 306 305 304 304 304 305 306 306 306 306 306 307 307 307 306 305 306 306 307 309 312 313 314 315 314 312 311 310 310 310 310 310 310 309 308 307 307 306 306
324 324 325 325 325 325 325 325 324 323 322 322 321 320 319 318 318 317 317 316 315 313 313 312 312 312 310 309 307 305 305 306 306 305 305 304 303 303 304 305 305 305 306 306 306 306 306 306 306 305 306 307 308 309 310 312 313 314 315 313 311 310 310 309 309 309 309 309 308 308 307 307 306 305
325 325 325 325 326 326 326 324 323 322 321 321 320 319 319 319 318 317 316 315 314 313 313 313 312 311 310 309 306 305 305 306 305 305 304 303 303 304 304 305 305 305 306 306 306 306 306 305 305 306 308 310 311 312 313 313 314 314 313 312 311 310 309 309 309 309 308 308 307 306 306 306 305 304
325 326 326 326 326 326 325 322 321 321 321 321 320 319 319 318 317 316 315 315 314 314 313 313 312 311 309 308 305 304 305 305 304 304 303 302 303 305 304 304 305 306 306 305 305 305 305 305 305 307 309 312 313 313 313 313 313 313 313 312 311 310 309 309 309 308 307 306 305 304 304 303 303 303
326 326 326 327 326 325 323 321 321 321 321 320 319 319 318 317 316 316 315 315 314 313 312 312 311 309 308 306 305 304 304 304 303 302 301 302 304 304 304 304 305 305 305 305 305 305 305 305 306 307 309 311 313 313 313 313 313 313 312 312 311 311 310 310 309 308 307 306 304 303 302 302 302 302
327 327 326 325 324 323 322 321 321 320 320 320 319 318 317 316 315 315 314 313 312 312 312 311 309 307 306 306 305 305 304 304 302 301 301 303 304 304 304 305 305 305 305 305 305 305 305 305 306 307 309 311 313 313 313 313 312 312 312 311 311 311 310 310 309 308 307 306 304 302 301 301 301 301
326 326 324 324 323 322 321 321 320 320 319 318 317 316 316 315 315 314 313 313 312 312 312 310 307 306 305 305 305 305 305 303 302 300 300 302 303 303 304 305 305 305 305 305 304 304 305 306 307 308 309 312 313 314 313 312 312 312 311 311 311 310 310 310 309 307 307 307 306 303 301 301 301 301
325 325 324 324 323 322 321 321 320 319 318 316 315 316 316 316 315 314 314 314 313 313 312 310 308 307 305 304 305 305 305 303 301 299 299 300 302 303 304 305 305 304 304 304 304 304 305 306 308 308 310 312 314 314 312 311 311 311 311 311 311 310 310 309 308 306 306 307 306 304 302 301 301 301
Wind_Speed
18 18 19 19 16 15 15 14 14 15 15 14 14 13 13 13 13 13 14 14 14 14 14 15 14 14 14 13 12 12 12 12 13 14 16 18 18 18 19 19 18 18 18 18 18 18 17 15 14 14 15 16 17 18 18 17 17 17 17 17 17 18 18 19 20 20 20 20 20 20 20 20 20 19
19 19 20 20 19 18 17 16 16 16 16 16 15 14 14 14 14 14 14 13 12 12 13 14 14 14 15 15 15 15 15 15 15 17 18 19 20 20 20 20 19 19 20 20 21 20 19 18 16 15 15 15 16 17 19 19 19 19 19 18 18 18 18 19 19 19 19 19 20 21 22 23 22 22
19 20 21 21 21 21 20 19 18 17 17 16 16 16 16 16 14 12 13 13 12 10 11 11 12 13 13 14 15 15 15 14 15 17 19 20 21 21 21 20 20 20 21 21 22 22 22 21 19 18 18 18 18 18 18 20 20 19 18 17 17 18 18 19 19 19 20 21 22 23 24 25 25 24
20 20 20 21 19 19 20 19 18 17 16 16 16 17 17 16 13 11 12 13 11 9 10 10 10 10 11 12 13 14 13 13 14 16 17 19 20 21 22 22 22 22 22 22 23 24 24 24 23 21 20 20 21 21 20 19 20 19 17 17 18 19 20 20 21 22 23 24 24 25 25 26 26 26
19 19 20 20 19 19 19 18 17 16 15 15 16 16 16 15 13 12 12 13 12 10 9 9 9 10 12 12 12 13 14 14 14 17 18 19 20 22 23 24 24 23 22 22 23 25 25 25 25 24 23 22 22 22 21 19 19 19 19 19 20 20 21 22 23 24 25 25 25 24 24 25 26 27
18 19 20 21 21 20 19 18 17 16 14 14 16 16 16 15 14 14 14 14 14 12 10 10 11 11 12 13 13 14 15 16 17 20 21 20 21 22 23 24 24 23 23 23 24 25 25 25 24 24 24 24 23 22 21 21 20 20 20 21 21 21 22 23 24 25 26 25 24 23 21 22 23 24
19 19 20 21 21 21 20 19 18 16 14 14 15 17 16 15 15 16 16 16 16 15 12 11 11 12 13 15 15 15 16 18 21 23 23 22 22 23 23 22 22 22 23 24 25 25 24 23 22 22 23 23 22 22 21 21 21 22 22 22 23 23 23 23 23 23 23 24 24 23 22 22 22 23
19 19 20 21 21 21 21 20 19 18 16 16 16 16 16 15 16 18 18 17 16 15 15 14 13 13 15 16 16 16 17 20 22 24 24 24 23 23 23 22 20 20 21 22 23 23 22 21 21 21 22 23 23 23 22 22 23 24 25 26 26 26 25 24 23 22 23 24 25 26 26 25 25 25
19 19 19 20 21 21 22 21 21 21 20 19 18 17 15 15 16 18 19 18 17 17 19 18 17 17 17 17 17 18 21 22 23 24 25 25 26 25 23 21 21 21 21 21 22 22 22 21 21 22 23 23 23 23 23 25 27 28 29 29 27 27 26 26 26 26 26 26 27 28 28 28 28 28
19 19 20 20 21 22 23 23 24 25 25 23 22 19 16 15 16 18 19 19 18 19 21 21 21 21 20 19 20 21 23 24 24 26 27 27 27 25 22 21 21 22 23 23 23 23 22 21 21 22 23 24 24 25 26 27 29 29 29 28 27 27 27 27 29 29 29 30 30 29 29 29 28 29
20 20 20 21 22 23 24 25 26 26 26 25 23 20 18 17 18 19 19 19 20 21 22 22 23 23 22 22 23 24 25 26 26 27 28 28 27 24 22 22 23 24 24 24 24 23 22 22 23 24 25 26 28 29 29 28 28 29 29 29 29 29 29 29 31 32 33 33 31 29 28 27 27 27
21 21 21 21 22 24 25 26 25 24 23 23 23 21 19 20 21 20 20 21 21 22 22 23 23 23 24 25 26 27 27 27 28 27 27 27 25 23 23 24 25 25 26 25 24 24 24 25 25 26 27 28 30 31 31 29 29 29 30 30 30 30 29 30 30 30 30 29 26 25 24 24 24 24
22 22 22 22 22 24 25 25 24 22 21 22 22 21 20 21 21 21 22 22 22 21 21 22 23 24 26 27 27 28 28 28 29 28 26 25 24 23 24 26 26 26 26 26 25 24 24 24 26 27 29 30 30 30 29 28 28 27 27 26 24 23 23 22 21 21 21 20 20 20 21 22 23 24
23 22 22 22 23 24 24 24 24 23 23 23 22 22 22 22 22 23 23 22 21 21 21 23 24 25 27 27 27 28 29 29 28 26 25 25 25 25 26 27 27 26 25 25 25 24 23 25 28 29 29 29 27 26 25 24 23 22 21 19 18 17 17 17 17 17 18 19 20 21 23 24 26 27
24 23 23 23 24 24 25 25 25 24 23 23 23 23 24 24 24 24 23 22 21 21 22 23 24 26 27 28 28 29 29 26 24 24 24 25 25 24 25 27 27 26 25 25 27 27 26 28 30 28 26 24 21 18 18 18 17 17 18 17 17 17 18 18 19 20 20 21 22 24 25 27 29 31
23 23 24 25 25 25 25 24 24 22 22 22 23 24 24 23 23 21 21 21 21 22 23 24 25 26 27 28 29 28 25 23 23 24 24 23 23 23 24 26 27 27 26 28 31 32 30 29 28 24 21 19 16 14 14 15 14 15 16 18 19 19 20 21 22 22 24 25 27 28 30 32 33 35
23 24 25 26 26 25 24 23 22 22 22 23 24 24 23 22 21 19 20 22 23 23 24 25 27 27 27 27 26 24 22 22 23 23 23 23 24 25 25 27 28 29 30 32 34 35 31 25 23 21 20 19 18 16 15 15 16 17 19 20 22 22 24 25 26 27 29 30 31 31 32 33 34 34
25 25 26 27 26 25 24 22 22 22 23 24 25 24 24 22 21 20 21 22 22 23 24 26 28 28 25 24 24 23 22 22 23 23 24 25 25 26 27 28 30 30 29 29 29 29 25 21 22 23 23 22 21 20 19 19 19 20 21 22 23 25 27 29 32 33 32 30 29 29 30 31 32 33
27 27 27 27 26 25 24 23 22 23 23 24 24 24 23 22 21 21 22 22 23 24 26 27 27 26 24 23 24 24 23 23 23 24 25 26 26 28 28 29 29 26 21 19 23 25 23 21 24 26 24 24 24 22 22 21 21 22 24 27 29 31 32 32 32 29 27 25 26 27 29 30 32 34
29 29 28 27 26 25 24 23 22 22 22 22 22 23 22 22 22 22 22 23 24 25 25 25 24 23 23 23 23 23 21 22 23 24 26 26 25 25 26 26 26 23 18 18 22 25 24 23 25 26 26 26 26 26 26 27 28 29 30 30 29 28 26 25 23 22 23 24 25 26 28 29 31 32
29 29 27 26 26 24 23 22 20 20 20 20 21 21 21 21 21 21 22 23 24 24 23 22 22 22 22 23 22 22 22 23 25 25 24 23 21 21 23 24 25 23 21 21 22 23 23 23 25 27 29 30 31 32 33 32 31 29 26 23 21 20 19 19 19 21 22 23 25 27 27 28 30 31
29 27 26 25 25 23 21 19 18 17 18 19 20 20 20 20 21 21 22 22 21 21 20 21 22 22 22 23 24 24 24 23 21 19 18 18 18 20 22 23 24 24 24 22 22 23 25 26 28 31 33 34 35 34 31 27 24 21 19 19 19 19 18 18 20 21 23 25 27 28 28 29 31 32
27 26 26 25 24 22 20 18 17 17 18 19 19 19 19 20 21 20 19 18 18 20 21 22 23 23 23 24 24 24 22 19 16 14 15 16 18 19 20 21 22 24 25 24 24 26 29 31 32 32 31 33 33 29 24 21 19 19 20 22 21 19 19 21 23 24 25 27 29 29 30 31 33 34
26 25 25 24 22 21 19 18 17 16 17 18 18 19 19 19 18 17 16 17 19 21 22 23 24 24 24 22 21 19 18 17 16 16 16 17 17 18 19 21 22 25 26 27 26 27 28 29 30 27 23 25 28 26 23 21 20 21 23 24 24 23 23 25 27 27 28 30 31 31 32 33 34 37
26 25 24 22 20 19 17 16 15 14 14 15 16 17 17 16 15 15 16 18 19 19 20 21 22 22 20 16 14 14 14 15 16 16 17 18 20 21 22 24 24 26 27 28 26 24 23 23 24 22 19 21 25 26 26 26 24 23 25 27 28 28 27 29 30 30 30 31 32 33 35 36 37 39
24 24 22 20 18 16 15 13 12 12 13 13 14 14 13 13 14 15 16 17 16 16 17 18 17 14 11 10 10 11 13 15 18 20 21 21 22 23 22 22 21 22 25 25 20 18 19 20 20 20 21 23 25 27 28 28 26 25 27 29 31 32 31 31 31 30 30 32 33 35 38 39 40 40
20 20 19 17 16 14 13 11 11 12 13 13 13 12 12 12 14 15 15 14 13 13 13 13 11 8 7 9 10 12 15 17 20 23 25 24 21 18 17 16 17 18 20 19 14 13 18 20 19 19 21 23 25 27 28 29 28 29 30 31 33 33 31 29 29 29 31 33 35 38 40 41 42 43
17 17 17 15 14 13 12 11 12 12 12 12 12 12 12 13 14 13 12 11 11 11 10 9 8 7 8 10 12 14 17 19 22 25 26 23 17 14 14 15 15 16 15 13 11 12 16 18 18 18 20 22 25 28 28 29 30 31 33 35 36 33 28 26 27 30 32 35 38 40 42 44 44 45
17 17 16 15 14 13 12 12 12 12 11 12 12 12 13 13 12 11 10 10 9 9 8 8 8 8 9 12 14 16 18 20 23 25 24 19 15 13 14 15 14 13 12 11 11 12 14 17 19 19 20 21 23 25 27 28 30 32 35 37 36 30 25 25 29 32 35 38 40 42 44 45 46 48
18 17 16 15 14 13 11 11 11 11 12 12 12 12 13 13 11 10 10 10 9 8 8 8 8 9 12 14 16 17 19 21 23 23 20 17 14 14 15 16 15 13 12 12 12 14 16 18 19 20 21 22 22 23 24 27 31 33 34 33 30 28 26 28 31 34 37 40 43 45 46 47 47 49
18 17 16 15 14 12 11 11 12 12 13 12 12 12 12 12 11 10 11 11 11 10 9 9 11 12 14 16 17 18 19 21 22 18 16 16 16 15 16 17 18 17 15 14 16 18 18 17 17 18 20 20 20 21 23 27 31 32 30 28 27 28 29 31 33 36 39 42 45 47 47 47 48 49
17 16 16 16 15 14 13 13 13 13 13 12 11 11 11 11 11 12 13 13 13 12 12 13 14 15 16 17 18 17 19 20 18 14 14 16 16 15 16 18 19 20 20 20 21 19 15 14 15 17 18 19 20 22 25 28 29 29 30 29 28 29 30 32 35 38 40 43 46 47 48 49 50 50
17 17 17 17 16 14 13 13 13 13 13 12 11 10 10 11 12 13 14 14 14 14 15 16 16 15 15 16 16 16 17 18 16 14 14 16 15 15 17 18 19 20 22 24 23 19 15 14 15 16 17 18 19 21 25 27 27 28 31 32 30 30 32 34 36 39 40 41 44 48 50 51 51 49
16 17 17 17 16 14 14 14 13 13 12 12 11 10 9 10 12 14 15 15 15 16 17 17 16 14 14 14 14 15 17 18 17 15 14 13 14 16 18 18 19 20 22 22 21 19 18 17 17 17 18 18 19 20 22 25 28 30 33 33 31 31 34 36 39 40 40 41 44 47 51 53 51 48
17 17 17 17 16 14 14 14 13 12 12 11 10 9 10 11 13 14 15 15 16 17 17 16 14 14 14 14 15 17 18 19 18 15 12 12 15 17 17 18 20 21 20 19 19 19 20 20 20 21 21 21 22 22 21 23 28 33 35 34 33 33 35 38 40 41 42 44 45 46 48 51 53 51
16 16 16 16 15 14 14 14 13 12 10 9 9 11 13 14 14 14 15 15 16 16 16 15 14 14 15 15 17 18 19 19 16 12 11 13 16 17 18 18 19 19 18 18 19 19 19 20 21 24 26 26 27 27 25 23 27 31 34 35 34 34 36 38 40 41 43 46 47 45 44 48 52 54
16 16 16 15 14 14 14 14 13 11 9 10 12 15 16 15 13 14 15 15 15 14 14 14 14 14 15 16 18 19 18 16 12 10 11 14 17 19 19 18 18 17 17 18 19 18 19 20 21 24 26 27 28 29 28 26 25 27 31 34 34 34 35 38 40 43 44 46 46 45 44 46 51 53
16 16 16 16 15 15 15 14 12 11 11 13 15 14 13 11 10 11 13 11 10 10 11 12 12 14 15 17 18 18 14 11 9 10 13 16 18 19 18 17 17 17 18 19 19 17 18 20 21 22 25 26 26 27 28 28 28 28 28 30 32 33 35 38 41 44 45 46 46 46 45 46 49 49
17 16 17 16 16 15 14 13 12 12 13 13 13 12 11 10 9 9 9 8 7 8 10 11 13 15 16 17 17 14 10 8 9 12 14 17 18 17 15 16 17 18 19 20 19 18 18 19 21 23 24 23 23 23 25 28 29 28 26 27 28 30 34 38 40 41 43 45 47 48 48 49 48 45
17 17 17 16 15 14 13 12 12 12 13 12 12 12 12 11 10 9 8 7 7 9 11 14 15 16 17 17 15 11 9 9 11 14 16 17 15 13 14 16 17 18 20 20 19 19 19 20 21 23 22 19 18 20 22 25 27 26 26 26 26 28 32 35 36 38 41 43 45 46 48 50 51 48
17 16 15 15 15 14 14 13 13 13 12 12 12 11 11 11 10 9 8 8 9 11 13 15 16 17 17 16 13 10 9 11 14 16 16 15 13 13 15 16 16 18 20 20 19 19 19 20 21 22 19 16 17 20 22 24 26 27 28 27 26 28 31 32 32 35 37 39 40 42 43 45 46 45
16 14 14 14 15 15 14 13 12 11 11 11 11 11 11 10 10 10 10 11 12 12 13 15 17 17 15 12 10 10 11 13 15 16 15 13 13 15 16 16 16 18 19 19 19 19 18 19 21 21 17 16 18 21 22 23 25 27 29 29 28 29 31 32 33 35 36 35 35 37 39 42 42 42
14 13 14 15 15 14 13 11 10 10 11 11 12 11 10 9 9 10 11 12 12 12 14 15 15 13 11 10 10 11 13 14 14 15 14 13 14 15 16 16 17 19 18 17 18 18 17 18 21 21 18 17 18 20 21 22 24 26 28 29 30 32 33 34 36 38 37 34 33 32 32 33 34 35
14 14 14 14 14 13 11 9 10 10 11 10 10 9 8 8 8 10 11 12 13 15 15 15 13 12 10 10 11 13 13 13 14 14 15 15 14 15 16 16 18 18 16 16 17 17 16 18 21 21 18 17 18 19 20 22 25 27 28 28 30 33 36 38 41 43 41 37 34 34 32 28 24 24
15 15 14 14 12 11 10 10 11 11 9 9 8 7 7 9 10 11 12 13 15 16 16 15 15 14 13 12 12 14 14 14 14 15 16 16 15 15 15 16 17 17 14 15 17 17 16 18 20 19 17 16 17 18 20 23 26 27 27 28 29 32 36 39 42 46 45 41 37 36 35 31 24 20
Wind_Direction
208 206 205 208 215 220 221 225 232 234 234 236 238 241 246 253 258 262 264 263 257 251 251 255 256 257 261 265 267 270 275 279 282 285 292 297 300 303 305 306 308 309 310 310 310 311 308 302 296 293 290 288 285 282 279 279 277 277 277 277 276 275 276 278 280 281 282 283 283 283 283 283 282 281
213 213 213 214 216 220 223 226 232 238 239 241 245 247 251 258 262 262 260 257 252 245 244 251 256 257 260 264 267 272 279 283 285 286 290 292 293 295 296 297 299 301 302 304 306 308 308 307 304 303 303 301 297 288 278 273 274 277 280 281 279 274 272 273 274 277 280 283 285 285 284 283 282 281
217 218 219 219 219 222 227 229 233 238 241 244 246 249 253 257 257 255 253 252 248 241 240 244 252 258 261 264 268 272 278 284 286 286 288 289 289 289 289 289 290 292 294 297 300 303 304 304 304 304 306 307 307 302 288 276 275 280 283 283 282 280 277 274 272 271 274 280 283 283 282 281 281 279
219 223 224 224 224 227 229 231 235 240 246 248 246 247 250 250 249 247 245 246 244 240 242 242 242 251 261 265 267 268 273 281 288 290 291 292 292 291 290 288 287 288 290 293 296 299 300 299 298 298 300 301 304 306 299 286 281 283 285 283 283 284 284 282 278 274 274 277 281 282 279 278 278 278
221 227 229 230 230 233 235 235 238 244 248 246 239 240 244 247 251 247 240 244 247 242 242 246 245 251 263 271 273 273 276 284 293 297 298 298 298 297 296 294 291 289 289 291 294 296 296 295 293 292 293 296 299 301 299 292 286 284 284 283 282 282 282 283 281 279 279 280 282 282 280 277 275 276
223 226 230 233 232 233 234 234 237 240 243 242 237 238 243 249 252 245 236 242 248 247 247 256 260 261 267 277 283 284 285 290 297 300 302 301 298 296 296 296 295 294 292 292 293 293 292 291 290 289 290 293 296 297 295 292 288 286 285 284 283 282 282 282 282 281 280 281 282 283 284 281 276 274
226 227 228 230 227 226 229 231 234 237 240 244 243 241 244 248 246 239 237 242 249 255 261 265 266 269 274 281 286 287 287 293 298 301 303 302 299 296 294 294 296 296 293 292 293 293 292 289 288 288 289 290 293 294 292 289 288 288 287 285 284 283 282 282 281 281 280 281 282 283 284 283 279 276
228 229 229 228 226 227 233 236 237 239 241 245 245 241 240 243 241 237 240 246 251 261 270 270 268 273 279 284 289 290 291 296 300 300 300 300 300 298 295 294 297 299 297 294 294 295 294 291 289 287 287 290 292 292 291 289 289 289 288 288 286 284 282 280 278 277 276 277 280 282 283 284 282 281
228 230 231 230 228 233 239 242 243 243 244 246 246 239 236 242 245 242 242 246 251 259 267 269 270 275 281 287 292 295 296 298 297 295 296 298 300 300 297 294 297 303 303 300 297 296 293 289 287 286 289 294 296 295 292 288 287 287 286 286 285 282 281 279 278 277 275 276 278 279 281 282 283 283
229 231 234 234 233 236 241 244 247 247 246 247 244 237 236 243 248 247 246 248 252 259 265 270 274 279 285 290 294 297 298 297 295 295 296 298 299 300 296 293 295 300 302 301 300 300 297 292 289 290 293 295 296 296 294 288 283 281 281 281 282 283 282 280 279 279 278 278 278 277 276 276 277 279
231 232 234 237 238 240 244 248 249 248 247 245 240 235 237 243 245 246 248 251 256 263 268 273 278 283 288 291 294 298 300 299 299 301 300 299 300 299 294 292 293 296 299 301 301 300 299 295 293 293 292 292 293 295 294 290 284 281 281 283 285 285 282 279 277 277 277 278 277 275 273 272 273 273
232 233 234 237 240 241 245 247 247 245 242 240 237 235 240 245 247 249 253 257 262 268 272 275 279 284 288 291 295 299 301 302 303 304 303 301 302 299 293 291 293 295 299 302 302 299 296 293 292 292 292 293 295 296 294 291 286 284 285 286 286 284 282 281 280 280 280 280 279 277 276 275 275 273
234 235 237 239 240 240 242 244 245 245 242 239 239 239 243 248 251 256 261 264 267 270 273 276 281 284 288 292 297 300 301 302 304 306 305 303 301 296 291 290 293 297 301 303 303 300 297 295 295 296 296 297 297 296 293 291 289 288 288 287 285 283 283 284 285 285 284 282 281 280 279 279 279 277
235 236 239 241 242 240 241 244 247 249 248 245 245 246 249 252 256 260 264 267 272 276 278 282 285 287 290 295 299 300 300 303 306 307 307 303 300 297 295 295 296 299 304 306 304 302 302 302 302 301 300 299 297 294 292 290 288 287 285 284 285 286 285 283 282 281 278 277 277 277 278 278 279 280
236 237 240 242 243 241 241 243 246 248 248 249 250 252 254 255 257 261 265 271 276 280 282 286 288 289 292 295 296 297 300 304 305 304 302 301 300 300 301 301 301 303 306 307 304 303 305 306 305 303 301 299 297 293 290 288 287 288 287 287 289 288 285 281 279 278 277 276 276 277 278 279 280 280
237 238 241 242 243 243 242 243 245 246 246 248 251 253 253 256 259 264 270 275 278 280 283 286 287 287 290 291 292 296 301 301 299 298 300 302 303 303 303 304 305 306 308 308 305 304 305 305 302 300 298 297 295 288 281 280 284 287 286 286 287 287 287 285 283 281 281 282 282 282 281 281 281 281
240 240 241 243 244 244 243 244 246 248 249 250 253 254 255 258 263 269 275 278 280 281 284 286 286 287 289 290 292 296 299 297 296 298 301 303 304 304 304 305 306 307 309 308 304 303 304 304 300 298 296 296 297 292 286 284 284 284 285 286 288 290 289 288 287 288 289 289 288 285 283 282 282 282
242 242 241 242 245 245 244 246 248 250 252 254 256 257 257 261 266 270 275 278 280 282 283 285 286 286 288 289 292 294 294 294 296 299 302 302 303 305 305 305 305 306 309 308 305 303 304 303 302 301 300 301 303 303 300 297 292 288 287 288 287 286 286 286 289 292 292 290 287 285 284 283 282 281
237 241 243 243 246 247 246 248 251 252 254 255 255 255 257 262 265 269 273 277 280 282 282 283 284 286 288 289 291 294 294 294 297 300 301 301 302 303 303 301 302 303 306 309 310 309 307 304 304 305 305 304 303 302 300 297 290 287 287 288 287 286 285 286 288 289 287 285 285 285 285 284 283 283
230 237 243 244 247 247 247 250 253 254 254 254 254 256 259 262 265 269 275 279 280 282 282 283 286 289 292 292 293 295 295 296 298 299 299 299 299 299 298 298 299 299 298 301 308 313 312 309 307 307 306 303 300 299 298 295 293 293 295 294 292 290 289 287 284 282 282 284 287 288 288 290 290 290
226 235 241 243 246 247 248 251 252 252 252 254 256 258 259 262 267 273 278 280 281 283 285 288 292 294 295 294 293 292 293 296 298 298 298 300 299 298 298 300 300 299 299 304 310 314 313 312 309 307 305 304 303 303 304 303 303 303 299 296 295 294 289 283 281 282 285 289 291 292 295 298 300 299
228 235 237 241 244 245 247 248 249 251 253 254 256 256 259 265 271 277 280 281 283 286 288 292 294 294 293 290 289 290 293 295 296 296 299 301 301 301 302 305 306 304 304 311 317 316 312 311 310 308 308 307 307 308 310 312 311 305 297 297 299 295 289 285 286 289 292 295 296 298 301 305 306 305
230 235 237 240 242 242 244 246 250 254 253 250 250 254 260 268 275 279 281 281 283 286 288 291 291 290 289 288 289 293 296 295 291 290 297 302 304 305 304 307 311 310 307 312 318 316 312 310 309 310 311 310 310 313 319 320 312 304 305 308 306 301 297 295 294 293 295 298 300 302 305 307 308 307
230 233 235 237 239 243 246 250 254 253 247 244 248 255 263 271 275 277 279 282 286 289 293 296 295 293 292 294 298 301 299 296 291 292 300 306 308 307 304 304 309 309 308 310 314 313 311 309 309 310 313 312 313 317 324 323 313 310 316 319 315 310 308 305 303 300 298 300 302 304 306 307 307 306
230 232 234 237 242 246 248 250 251 246 241 244 250 257 263 266 269 274 281 287 293 298 303 305 302 299 300 304 310 314 316 318 317 312 309 306 302 301 303 305 307 307 306 307 310 311 311 312 314 316 316 313 313 317 322 321 315 314 319 322 320 317 314 312 310 306 303 302 303 305 306 305 305 304
231 234 237 240 243 244 243 241 240 239 241 248 252 254 256 260 269 281 289 294 302 310 313 314 312 312 313 312 318 331 338 339 336 331 324 314 304 299 301 304 306 307 306 307 309 312 315 317 320 320 317 315 315 316 319 319 319 318 319 321 322 320 318 315 312 309 307 307 306 305 305 304 303 303
228 230 233 234 233 232 231 231 234 238 243 248 248 247 251 265 279 289 294 299 310 319 321 323 327 330 324 314 316 329 335 333 332 333 333 326 314 304 303 305 307 310 311 312 315 319 320 320 320 317 315 314 314 315 317 319 321 322 321 320 322 322 320 318 314 311 310 309 307 306 306 304 304 304
220 221 221 221 221 221 223 228 235 240 242 243 243 245 257 274 284 289 293 300 313 324 329 334 340 338 326 316 316 322 327 326 327 331 332 327 317 309 311 312 313 316 317 318 320 321 318 317 316 314 313 313 314 315 316 316 318 320 321 321 322 322 320 317 314 312 312 311 309 308 307 306 307 308
214 214 212 213 216 218 224 232 239 242 240 238 240 249 265 278 282 284 289 297 309 320 327 331 332 328 319 312 312 316 319 321 324 328 327 321 315 316 319 318 319 323 325 324 323 319 315 314 313 311 309 310 311 312 313 313 315 319 321 321 321 321 318 315 314 314 314 312 311 310 310 310 311 312
209 208 210 214 218 222 229 237 240 239 237 237 244 258 271 275 274 276 284 290 295 302 310 313 314 313 308 305 308 312 313 316 322 324 321 318 321 327 327 324 324 328 331 330 325 320 316 314 313 312 311 310 308 309 312 314 317 321 323 323 322 321 318 314 314 315 314 313 312 312 313 313 313 313
207 210 215 219 222 226 231 234 234 235 237 243 255 266 269 265 262 269 277 280 283 289 296 300 301 303 301 301 305 308 310 314 319 319 317 320 325 330 331 329 328 329 332 330 325 322 321 320 320 320 319 314 309 311 319 321 321 323 327 326 324 322 320 318 317 316 316 316 315 315 316 316 315 315
210 216 222 225 226 229 234 235 236 238 243 252 261 262 257 253 255 264 269 273 278 285 289 291 295 298 297 297 300 303 306 311 313 312 315 322 327 331 333 331 329 329 328 326 327 329 328 326 327 327 323 315 310 315 323 326 326 329 332 331 327 324 323 322 320 319 319 319 318 317 317 317 317 317
216 221 226 229 232 235 238 240 239 241 247 255 258 253 248 252 259 266 270 273 277 282 283 285 291 295 294 292 294 298 304 309 309 309 317 325 328 331 331 329 328 328 326 326 331 336 335 327 324 321 317 313 313 320 327 328 329 334 336 335 330 326 324 323 322 321 321 321 319 317 317 317 318 319
222 228 231 233 235 238 240 240 240 242 249 253 252 250 254 262 266 268 268 268 270 273 275 279 285 291 293 295 298 303 309 312 310 310 317 325 327 327 327 325 325 326 327 329 333 337 336 330 324 320 316 316 316 319 326 330 332 335 337 335 331 327 325 323 322 322 322 321 319 317 316 316 319 319
223 227 230 232 234 236 237 237 238 242 249 253 255 260 265 267 267 264 260 259 261 265 270 275 283 291 297 302 308 311 313 312 309 309 315 321 322 323 324 324 325 327 330 331 332 334 334 332 331 329 328 328 325 321 325 333 334 332 333 332 328 326 325 323 323 324 324 321 319 318 316 316 318 319
221 224 228 232 233 233 233 233 236 243 252 260 265 268 268 269 266 260 254 253 256 260 265 270 276 284 295 304 310 312 312 309 306 305 311 317 319 320 321 323 325 328 329 329 330 332 333 333 334 335 334 334 330 324 323 331 333 330 329 328 326 327 327 326 325 326 325 323 321 320 317 315 316 318
218 222 226 230 231 232 231 230 236 247 259 268 271 272 274 275 266 251 245 249 253 256 259 264 271 283 298 306 310 310 308 303 299 302 310 315 316 317 318 322 326 328 327 328 330 332 333 333 334 335 333 332 329 325 322 325 331 333 329 325 325 328 329 328 327 327 327 325 322 321 319 316 315 319
218 220 224 226 227 228 228 229 239 254 264 269 270 269 270 268 256 242 243 251 259 260 259 264 277 293 304 310 311 309 302 292 291 301 310 313 314 316 319 322 326 327 326 327 329 332 333 333 334 336 336 333 329 326 321 320 327 333 329 323 324 330 331 331 330 330 329 327 325 323 321 318 317 319
219 222 225 226 226 228 229 234 246 258 265 266 261 254 255 260 260 259 261 266 269 267 270 280 293 304 312 315 313 305 288 279 293 305 310 314 316 319 320 322 324 325 325 327 329 331 333 335 338 341 341 334 327 323 318 316 322 327 325 323 329 334 334 333 333 331 330 330 328 326 324 323 322 322
221 222 223 226 228 230 232 241 253 262 265 261 252 253 264 273 277 277 275 274 277 282 288 297 305 311 314 313 305 287 271 284 303 309 313 315 317 318 319 320 322 324 325 326 329 330 332 338 343 344 342 334 327 323 321 321 325 327 326 329 336 338 336 336 337 336 334 334 332 329 328 327 326 326
225 224 225 226 227 229 236 248 256 258 256 252 253 263 274 276 274 274 274 280 289 293 298 305 310 311 309 304 290 275 280 300 309 310 313 314 310 311 317 320 321 324 326 326 328 329 332 338 345 345 340 333 329 330 330 331 331 330 330 333 337 339 340 341 343 342 340 340 337 333 330 328 326 326
229 228 226 225 227 233 242 251 253 250 249 254 262 272 276 273 273 278 286 293 296 296 300 306 307 303 298 289 279 284 300 309 310 310 312 308 304 311 319 320 320 324 327 326 326 327 330 338 347 347 339 331 332 335 336 335 331 329 330 332 335 339 343 345 346 346 346 347 345 339 334 331 328 328
224 220 220 223 230 237 243 245 244 245 253 260 265 268 271 273 278 286 290 291 291 291 297 305 304 295 284 280 287 299 307 309 309 310 306 300 303 313 318 317 319 324 325 324 325 326 329 342 351 348 339 334 335 336 336 336 333 330 331 333 335 339 343 346 347 347 349 351 351 347 340 334 329 325
216 213 216 223 231 235 236 236 238 247 256 259 257 259 264 268 277 285 288 289 290 292 298 307 307 295 282 281 291 299 303 306 310 308 301 297 304 312 314 314 319 324 325 327 329 327 330 345 353 350 342 337 337 337 339 339 336 334 333 334 335 340 344 347 348 348 349 353 355 353 348 340 327 316
216 214 217 224 230 233 233 235 240 248 257 258 256 261 267 271 278 286 292 294 294 293 295 301 305 299 286 277 282 291 298 305 310 309 303 300 302 306 309 314 320 323 327 333 333 329 334 348 355 353 346 339 337 339 342 341 338 337 335 334 337 343 347 349 350 350 351 354 357 359 356 350 340 326